Regional Weather Roundup
Issued by NWS Upton, NY

Current Version | Previous Version | Text Only | Print | Product List | Glossary Off
Versions: 1 2 3 4 5 6 7 8 9 10 11 12 13 14 15 16 17 18 19 20 21 22 23 24 25 26 27 28 29 30 31 32 33 34 35 36 37 38 39 40 41 42 43 44 45 46 47 48 49 50
000 ASUS41 KOKX 061208 RWROKX REGIONAL WEATHER ROUNDUP NATIONAL WEATHER SERVICE NEW YORK NY 800 AM EDT MON JUL 06 2015 NOTE: "FAIR" INDICATES FEW OR NO CLOUDS BELOW 12,000 FEET WITH NO SIGNIFICANT WEATHER AND/OR OBSTRUCTIONS TO VISIBILITY. NYZ071-072-176-178-NJZ106-104-061300- NEW YORK CITY METRO AREA CITY SKY/WX TMP DP RH WIND PRES REMARKS CENTRAL PARK MOSUNNY 75 67 76 CALM 30.19R LAGUARDIA APRT PTSUNNY 72 66 81 NE6 30.16R KENNEDY INTL PTSUNNY 73 68 84 CALM 30.17R NEWARK/LIBERTY PTSUNNY 75 68 78 CALM 30.16R BRNX BOT. GARD N/A 73 66 78 E2 30.18R TETERBORO MOSUNNY 74 65 73 CALM 30.15R $$ NYZ177-179-078>081-061300- LONG ISLAND NEW YORK CITY SKY/WX TMP DP RH WIND PRES REMARKS FARMINGDALE PTSUNNY 72 68 87 CALM 30.17R ISLIP CLOUDY 73 69 87 CALM 30.15S SHIRLEY MOSUNNY 73 70 90 CALM 30.17S WESTHAMPTON MOSUNNY 72 70 93 W5 30.18F MONTAUK POINT N/A 70 67 90 CALM 30.18S $$ NYZ052-065-067-061300- HUDSON VALLEY CITY SKY/WX TMP DP RH WIND PRES REMARKS WHITE PLAINS MOSUNNY 70 67 90 CALM 30.17S FOG NEWBURGH MOSUNNY 66 66 100 CALM 30.18S MONTGOMERY MOSUNNY 66 63 90 CALM 30.17S POUGHKEEPSIE MOSUNNY 65 61 87 CALM 30.16F ALBANY PTSUNNY 65 60 84 CALM 30.16S $$ NJZ001-105-106-008-010-013-015-019>022-104-061300- NEW JERSEY CITY SKY/WX TMP DP RH WIND PRES REMARKS NEWARK/LIBERTY PTSUNNY 75 68 78 CALM 30.16R TETERBORO MOSUNNY 74 65 73 CALM 30.15R CALDWELL MOSUNNY 69 63 81 CALM 30.17S MORRISTOWN PTSUNNY 72 70 94 CALM 30.17R SOMERVILLE PTSUNNY 69 64 84 CALM 30.14S SUSSEX MOSUNNY 65 62 90 CALM 30.17S ANDOVER N/A 67 65 93 CALM 30.18S TRENTON PTSUNNY 73 68 84 VRB3 30.15S MILLVILLE CLOUDY 73 71 93 E5 30.13F ATLANTIC CITY CLOUDY 74 71 91 E3 30.14S WRIGHTSTOWN SUNNY 72 70 92 SE2 30.13S TOMS RIVER CLOUDY 73 68 83 CALM 30.15F BELMAR PTSUNNY 73 66 78 SE5 30.16S $$ PAZ047>061-062-071-061300- EASTERN PENNSYLVANIA CITY SKY/WX TMP DP RH WIND PRES REMARKS PHILADELPHIA CLOUDY 74 69 85 E6 30.14S ALLENTOWN PTSUNNY 70 65 84 NE5 30.16S SCRANTON PTSUNNY 66 60 81 NE7 30.17S $$ CTZ002-004>006-009-010-012-RIZ004-006-007-MAZ004-011-015-061300- SOUTHERN NEW ENGLAND IN CT CITY SKY/WX TMP DP RH WIND PRES REMARKS BRADLEY INTL PTSUNNY 66 61 84 CALM 30.16S HARTFORD MOSUNNY 67 64 90 SE9 30.17R DANBURY MOSUNNY 65 61 87 CALM 30.19S FOG WTRBRY/OXFORD SUNNY 68 63 83 CALM 30.21R FOG BRIDGEPORT MOSUNNY 72 67 84 CALM 30.17S MERIDEN MOSUNNY 68 64 87 CALM 30.17S NEW HAVEN PTSUNNY 70 68 93 CALM 30.17S CHESTER FAIR 70 66 88 SW3 30.18S GROTON MOSUNNY 68 65 90 CALM 30.16S WILLIMANTIC PTSUNNY 64 61 90 CALM 30.18R IN RI CITY SKY/WX TMP DP RH WIND PRES REMARKS PROVIDENCE PTSUNNY 69 64 84 S3 30.17S BLOCK ISLAND PTSUNNY 68 64 88 SW7 30.17S WESTERLY PTSUNNY 68 64 87 W3 30.18S IN MA CITY SKY/WX TMP DP RH WIND PRES REMARKS BOSTON MOSUNNY 74 61 63 CALM 30.15R WORCESTER PTSUNNY 70 62 76 W3 30.19R WESTFIELD PTSUNNY 64 60 87 CALM 30.17S PROVINCETOWN MOSUNNY 70 10 10 SW5 30.16R NANTUCKET MOSUNNY 68 65 90 SW10 30.16F $$ ANZ330-335-338-340-345-350-353-355-061300- COASTAL MARINE OBSERVATIONS STATION/POSITION TIME SKY/WX TEMP WIND PRES VSBY WAVE AIR SEA DIR/SP/G HT/PER (UTC) (F) (DEG/KT/KT) (MB) (MI) (FT/S) NY HARB ENTRANCE 1150 71 71 170/ 2/ 4 1021.0 2/ 7 4S FIRE IS 1103 70 N/A 3/ 7 20S FIRE ISLAND 1150 70 69 150/ 4/ 4 1021.2 2/ 7 GREAT SOUTH BAY 1115 72 75 220/ 4/ 4 N/A 23SW MTP 1150 69 68 220/ 6/ 6 1021.5 3/ 7 HUDSON CANYON NOT AVBL KINGS POINT 1100 70 67 CALM / 1 1020.6 CENTRAL LI SOUND NOT AVBL EASTERN LI SOUND 1100 65 64 180/ 2/ 2 N/A ROBBINS REEF 1100 70 180/ 4/ 4 1020.0 $$ >>>>>>>>>>>>>>>>>>>>>>>>>>>> KEY <<<<<<<<<<<<<<<<<<<<<<<<<<< > < > SKY/WX - SKY CONDITION/PRESENT WEATHER < > TMP - TEMPERATURE IN FAHRENHEIT < > DP - DEWPOINT IN FAHRENHEIT < > RH - RELATIVE HUMIDITY IN PERCENT < > WIND - DIRECTION AND SPEED IN MPH < > PRES - MEAN SEA LEVEL PRESSURE IN INCHES OF HG < > WCI - WIND CHILL INDEX < > VSB - VISIBILITY IN MILES < > HX - HEAT INDEX < > TC - TEMPERATURE IN CELSIUS < > VRB - VARIABLE WIND DIRECTION < > < >>>>>>>>>>>>>>>>>>>>>>>>>>>> KEY <<<<<<<<<<<<<<<<<<<<<<<<<<<

USA.gov is the U.S. government's official web portal to all federal, state and local government web resources and services.